contact:dominique.lefevre@mio.osupytheas.fr, maurice.libes@osupytheas.fr, didier.mallarino@osupytheas.fr
Project:EMSO http://www.emso-fr.org/EMSO-France
Depth: 2436.0 m
Title:EMSO Ligure Ouest : Data MII capteur AQUADOPP
Date,Latitude,Longitude,X_East,Y_North,Z_Up,Amplitude_X,Amplitude_Y,Amplitude_Z,Batterie,SoundSpeed,Heading,Pitch,Roll,Pressure,TIS,Speed,Direction
, degrees North, degrees East, m.s-1, m.s-1,m.s-1, 1, 1, 1, Volt, m.s-1, degree, degree, degree, dbar, degree_C, m.s-1, degree
2021-04-23T00:04:03,42.805,6.029,0.009,-0.016,0.003,104.0,103.0,102.0,13.4,1505.2,325.5,-0.8,1.8,2470.288,13.28,0.018,150.6
2021-04-23T00:07:03,42.805,6.029,0.022,-0.04,-0.001,103.0,103.0,102.0,13.3,1505.2,327.5,-0.8,1.8,2470.297,13.28,0.045,151.2
2021-04-23T00:10:03,42.805,6.029,0.022,-0.023,0.006,102.0,102.0,102.0,13.3,1505.2,327.5,-0.7,1.8,2470.256,13.28,0.031,136.3
2021-04-23T00:13:03,42.805,6.029,0.012,-0.016,0.004,104.0,104.0,102.0,13.4,1505.2,325.7,-0.8,1.8,2470.279,13.28,0.02,143.1
2021-04-23T00:16:03,42.805,6.029,0.016,-0.006,0.005,103.0,105.0,103.0,13.4,1505.2,324.2,-0.8,1.9,2470.276,13.28,0.017,110.6
2021-04-23T00:19:03,42.805,6.029,0.016,-0.027,0.007,104.0,104.0,101.0,13.4,1505.2,323.7,-0.7,1.8,2470.287,13.28,0.031,149.3
2021-04-23T00:22:03,42.805,6.029,0.01,-0.02,-0.002,104.0,103.0,103.0,13.4,1505.2,327.5,-0.7,1.8,2470.275,13.28,0.022,153.4
2021-04-23T00:25:03,42.805,6.029,0.012,-0.021,0.004,104.0,106.0,102.0,13.4,1505.2,329.0,-0.8,1.8,2470.309,13.28,0.024,150.3
2021-04-23T00:28:03,42.805,6.029,0.032,-0.004,0.036,103.0,104.0,102.0,13.3,1505.2,326.5,-0.8,1.8,2470.303,13.28,0.032,97.1
2021-04-23T00:31:03,42.805,6.029,0.025,-0.027,-0.013,105.0,105.0,100.0,13.3,1505.2,328.0,-0.8,1.8,2470.312,13.28,0.036,137.2
2021-04-23T00:34:03,42.805,6.029,0.024,-0.022,0.004,103.0,104.0,102.0,13.4,1505.2,326.6,-0.7,1.8,2470.313,13.28,0.032,132.5
2021-04-23T00:37:03,42.805,6.029,0.01,0.005,0.026,105.0,104.0,101.0,13.3,1505.2,324.7,-0.7,1.8,2470.297,13.28,0.011,63.4
2021-04-23T00:40:03,42.805,6.029,0.004,-0.014,0.027,102.0,103.0,103.0,13.3,1505.2,328.5,-0.7,1.8,2470.321,13.28,0.014,164.1
2021-04-23T00:43:03,42.805,6.029,0.043,-0.004,0.009,104.0,103.0,101.0,13.4,1505.2,327.5,-0.7,1.8,2470.373,13.28,0.043,95.3
2021-04-23T00:46:03,42.805,6.029,0.014,-0.021,-0.019,104.0,103.0,102.0,13.4,1505.2,327.0,-0.7,1.8,2470.305,13.28,0.025,146.3
2021-04-23T00:49:03,42.805,6.029,0.002,-0.013,0.002,102.0,103.0,102.0,13.4,1505.2,323.4,-0.8,1.8,2470.349,13.28,0.013,171.3
2021-04-23T00:52:03,42.805,6.029,0.017,-0.016,0.016,103.0,103.0,101.0,13.4,1505.2,328.6,-0.7,1.8,2470.324,13.28,0.023,133.3
2021-04-23T00:55:03,42.805,6.029,0.019,-0.028,0.008,104.0,104.0,103.0,13.3,1505.2,327.5,-0.7,1.8,2470.308,13.28,0.033,145.8
2021-04-23T00:58:03,42.805,6.029,0.018,0.003,0.024,105.0,101.0,102.0,13.3,1505.2,328.1,-0.7,1.8,2470.297,13.28,0.018,80.5
2021-04-23T01:04:03,42.805,6.029,0.026,-0.017,-0.037,106.0,104.0,102.0,13.3,1505.2,325.3,-0.7,1.8,2470.365,13.28,0.031,123.2
2021-04-23T01:07:03,42.805,6.029,0.013,-0.014,0.022,105.0,104.0,103.0,13.4,1505.2,327.1,-0.8,1.8,2470.37,13.28,0.019,137.1
2021-04-23T01:10:03,42.805,6.029,0.007,-0.03,0.008,106.0,105.0,104.0,13.4,1505.2,324.3,-0.7,1.9,2470.367,13.28,0.03,166.9
2021-04-23T01:13:03,42.805,6.029,0.028,-0.019,0.03,106.0,105.0,102.0,13.4,1505.2,328.2,-0.7,1.8,2470.379,13.28,0.033,124.2
2021-04-23T01:16:03,42.805,6.029,0.024,-0.008,0.015,103.0,105.0,103.0,13.3,1505.2,327.5,-0.7,1.8,2470.331,13.28,0.025,108.4
2021-04-23T01:19:03,42.805,6.029,0.027,-0.021,0.015,104.0,104.0,102.0,13.4,1505.2,329.0,-0.7,1.8,2470.361,13.28,0.034,127.9
2021-04-23T01:22:03,42.805,6.029,0.02,-0.023,-0.024,104.0,105.0,103.0,13.4,1505.2,325.5,-0.7,1.8,2470.37,13.28,0.03,139.0
2021-04-23T01:25:03,42.805,6.029,0.022,-0.013,-0.003,104.0,105.0,102.0,13.4,1505.2,327.1,-0.7,1.8,2470.359,13.28,0.025,120.6
2021-04-23T01:28:03,42.805,6.029,0.033,-0.033,0.001,102.0,103.0,102.0,13.4,1505.2,324.4,-0.8,1.8,2470.388,13.28,0.046,135.0
2021-04-23T01:31:03,42.805,6.029,0.008,-0.022,-0.006,102.0,103.0,102.0,13.4,1505.2,326.7,-0.8,1.9,2470.353,13.28,0.023,160.0
2021-04-23T01:34:03,42.805,6.029,0.014,-0.005,0.004,102.0,104.0,102.0,13.4,1505.2,325.9,-0.7,1.8,2470.365,13.28,0.014,109.6
2021-04-23T01:37:03,42.805,6.029,0.039,-0.004,0.003,104.0,103.0,102.0,13.4,1505.2,326.7,-0.8,1.8,2470.394,13.28,0.039,95.9
2021-04-23T01:40:03,42.805,6.029,0.011,0.008,0.025,103.0,104.0,103.0,13.4,1505.2,324.2,-0.8,1.8,2470.375,13.28,0.013,54.0
2021-04-23T01:43:03,42.805,6.029,0.016,-0.004,0.001,103.0,103.0,103.0,13.4,1505.2,327.9,-0.8,1.9,2470.41,13.28,0.016,104.0
2021-04-23T01:46:03,42.805,6.029,0.031,0.001,0.023,104.0,104.0,102.0,13.4,1505.2,326.3,-0.8,1.8,2470.43,13.28,0.031,88.2
2021-04-23T01:49:03,42.805,6.029,0.013,-0.02,-0.02,103.0,103.0,102.0,13.4,1505.2,324.5,-0.8,1.9,2470.395,13.28,0.023,147.0
2021-04-23T01:52:03,42.805,6.029,0.01,0.004,0.038,104.0,103.0,103.0,13.4,1505.2,325.8,-0.8,1.8,2470.36,13.28,0.01,68.2
2021-04-23T01:55:03,42.805,6.029,0.014,-0.013,0.008,105.0,105.0,102.0,13.4,1505.2,326.7,-0.8,1.8,2470.429,13.28,0.019,132.9
2021-04-23T01:58:03,42.805,6.029,0.025,-0.023,0.012,102.0,105.0,102.0,13.4,1505.2,327.5,-0.7,1.8,2470.424,13.28,0.033,132.6
2021-04-23T02:04:03,42.805,6.029,0.025,-0.01,0.007,102.0,106.0,103.0,13.4,1505.2,325.4,-0.8,1.8,2470.482,13.28,0.026,111.8
2021-04-23T02:07:03,42.805,6.029,0.033,-0.017,0.008,104.0,104.0,102.0,13.4,1505.2,326.0,-0.8,1.8,2470.402,13.28,0.037,117.3
2021-04-23T02:10:03,42.805,6.029,0.011,-0.023,0.022,105.0,103.0,102.0,13.4,1505.2,327.1,-0.7,1.8,2470.439,13.28,0.025,154.4
2021-04-23T02:13:03,42.805,6.029,0.01,-0.026,0.008,105.0,104.0,102.0,13.4,1505.2,329.2,-0.7,1.8,2470.436,13.28,0.027,159.0
2021-04-23T02:16:03,42.805,6.029,0.026,-0.017,0.004,105.0,105.0,102.0,13.3,1505.2,326.5,-0.7,1.8,2470.459,13.28,0.031,123.2
2021-04-23T02:19:03,42.805,6.029,0.017,-0.015,0.007,104.0,105.0,102.0,13.4,1505.2,327.2,-0.7,1.8,2470.433,13.28,0.022,131.4
2021-04-23T02:22:03,42.805,6.029,0.014,-0.017,0.022,105.0,105.0,103.0,13.4,1505.2,324.2,-0.8,1.8,2470.44,13.28,0.022,140.5
2021-04-23T02:25:03,42.805,6.029,0.027,-0.009,0.032,105.0,104.0,102.0,13.4,1505.2,328.6,-0.8,1.8,2470.418,13.28,0.028,108.4
2021-04-23T02:28:03,42.805,6.029,0.028,-0.033,-0.016,105.0,106.0,103.0,13.4,1505.2,327.3,-0.7,1.8,2470.461,13.28,0.043,139.7
2021-04-23T02:31:03,42.805,6.029,0.031,0.004,0.058,105.0,106.0,102.0,13.4,1505.2,323.8,-0.7,1.8,2470.431,13.28,0.031,82.7
2021-04-23T02:34:03,42.805,6.029,0.024,-0.025,0.028,105.0,104.0,103.0,13.4,1505.2,328.6,-0.8,1.8,2470.462,13.28,0.034,136.2
2021-04-23T02:37:03,42.805,6.029,0.035,-0.019,0.013,103.0,105.0,103.0,13.3,1505.2,327.9,-0.8,1.8,2470.473,13.28,0.039,118.5
2021-04-23T02:40:03,42.805,6.029,0.009,0.005,0.022,106.0,106.0,103.0,13.4,1505.2,325.5,-0.7,1.8,2470.43,13.28,0.01,60.9
2021-04-23T02:43:03,42.805,6.029,0.008,-0.013,0.042,105.0,105.0,102.0,13.4,1505.2,323.6,-0.7,1.8,2470.433,13.28,0.015,148.4
2021-04-23T02:46:03,42.805,6.029,0.019,-0.023,-0.034,105.0,106.0,104.0,13.4,1505.2,326.9,-0.8,1.8,2470.469,13.28,0.029,140.4
2021-04-23T02:49:03,42.805,6.029,0.013,-0.012,-0.006,105.0,105.0,101.0,13.3,1505.2,324.8,-0.8,1.8,2470.443,13.28,0.017,132.7
2021-04-23T02:52:03,42.805,6.029,0.017,-0.023,0.014,104.0,105.0,104.0,13.4,1505.2,329.2,-0.7,1.8,2470.418,13.28,0.028,143.5
2021-04-23T02:55:03,42.805,6.029,0.018,-0.022,0.01,104.0,106.0,103.0,13.4,1505.2,325.2,-0.8,1.8,2470.424,13.28,0.028,140.7
2021-04-23T02:58:03,42.805,6.029,0.024,-0.036,0.014,105.0,104.0,103.0,13.3,1505.2,324.5,-0.7,1.8,2470.436,13.28,0.043,146.3
2021-04-23T03:04:03,42.805,6.029,0.016,-0.019,0.008,104.0,104.0,101.0,13.4,1505.2,326.7,-0.8,1.8,2470.487,13.28,0.024,139.9
2021-04-23T03:07:03,42.805,6.029,0.011,-0.016,-0.017,106.0,104.0,103.0,13.4,1505.2,326.7,-0.8,1.8,2470.452,13.28,0.019,145.5
2021-04-23T03:10:03,42.805,6.029,0.004,-0.009,0.0,108.0,103.0,102.0,13.4,1505.2,324.8,-0.7,1.8,2470.459,13.28,0.009,156.0
2021-04-23T03:13:03,42.805,6.029,-0.016,-0.021,-0.018,104.0,103.0,102.0,13.4,1505.2,327.8,-0.8,1.8,2470.475,13.28,0.026,217.3
2021-04-23T03:16:03,42.805,6.029,0.012,-0.023,0.016,103.0,104.0,101.0,13.3,1505.2,324.5,-0.7,1.8,2470.445,13.28,0.025,152.4
2021-04-23T03:19:03,42.805,6.029,0.02,-0.032,0.01,104.0,102.0,102.0,13.4,1505.2,325.8,-0.8,1.8,2470.453,13.28,0.037,148.0
2021-04-23T03:22:03,42.805,6.029,0.011,-0.016,0.024,103.0,103.0,102.0,13.3,1505.2,328.4,-0.8,1.8,2470.432,13.28,0.019,145.5
2021-04-23T03:25:03,42.805,6.029,0.0,-0.005,0.005,103.0,103.0,102.0,13.4,1505.2,326.1,-0.7,1.8,2470.45,13.28,0.005,180.0
2021-04-23T03:28:03,42.805,6.029,-0.006,-0.019,0.018,101.0,103.0,104.0,13.3,1505.2,327.9,-0.7,1.8,2470.412,13.28,0.019,197.5
2021-04-23T03:31:03,42.805,6.029,0.012,-0.01,-0.001,105.0,104.0,102.0,13.4,1505.2,327.2,-0.8,1.8,2470.482,13.28,0.015,129.8
2021-04-23T03:34:03,42.805,6.029,-0.022,-0.013,-0.009,103.0,104.0,102.0,13.4,1505.2,325.0,-0.8,1.8,2470.412,13.28,0.025,239.4
2021-04-23T03:37:03,42.805,6.029,0.004,-0.023,0.022,103.0,104.0,102.0,13.4,1505.2,327.1,-0.7,1.8,2470.387,13.28,0.023,170.1
2021-04-23T03:40:03,42.805,6.029,0.01,-0.011,0.008,103.0,102.0,101.0,13.4,1505.2,327.7,-0.7,1.8,2470.398,13.28,0.014,137.7
2021-04-23T03:43:03,42.805,6.029,0.0,0.0,0.005,103.0,103.0,102.0,13.4,1505.2,325.1,-0.8,1.8,2470.395,13.28,0.0,0.0
2021-04-23T03:46:03,42.805,6.029,-0.035,0.007,0.034,103.0,102.0,101.0,13.4,1505.2,328.4,-0.8,1.8,2470.424,13.28,0.035,281.3
2021-04-23T03:49:03,42.805,6.029,-0.014,-0.011,-0.024,105.0,104.0,102.0,13.4,1505.2,327.0,-0.8,1.8,2470.405,13.28,0.017,231.8
2021-04-23T03:52:03,42.805,6.029,-0.017,-0.021,-0.023,104.0,103.0,103.0,13.4,1505.2,325.7,-0.7,1.8,2470.453,13.28,0.027,219.0
2021-04-23T03:55:03,42.805,6.029,-0.008,-0.024,0.018,104.0,104.0,102.0,13.4,1505.2,324.3,-0.7,1.8,2470.405,13.29,0.025,198.4
2021-04-23T03:58:03,42.805,6.029,0.0,-0.041,-0.015,104.0,103.0,101.0,13.4,1505.2,325.3,-0.7,1.8,2470.453,13.29,0.041,180.0
2021-04-23T04:04:03,42.805,6.029,-0.007,-0.035,-0.028,103.0,103.0,102.0,13.4,1505.2,326.9,-0.8,1.8,2470.397,13.28,0.035,191.3
2021-04-23T04:07:03,42.805,6.029,0.006,-0.024,-0.026,104.0,103.0,101.0,13.4,1505.2,324.1,-0.8,1.8,2470.382,13.28,0.024,166.0
2021-04-23T04:10:03,42.805,6.029,-0.013,-0.039,-0.008,103.0,104.0,101.0,13.4,1505.2,326.9,-0.8,1.9,2470.412,13.28,0.041,198.4
2021-04-23T04:13:03,42.805,6.029,-0.02,-0.04,-0.009,102.0,103.0,104.0,13.3,1505.2,326.0,-0.7,1.8,2470.374,13.28,0.044,206.6
2021-04-23T04:16:03,42.805,6.029,-0.01,-0.007,-0.008,102.0,103.0,102.0,13.3,1505.2,326.6,-0.8,1.8,2470.323,13.28,0.012,235.0
2021-04-23T04:19:03,42.805,6.029,-0.01,-0.018,-0.009,104.0,103.0,101.0,13.3,1505.2,327.5,-0.7,1.8,2470.312,13.28,0.02,209.1
2021-04-23T04:22:03,42.805,6.029,0.011,-0.044,0.004,104.0,102.0,102.0,13.3,1505.2,327.5,-0.7,1.8,2470.326,13.28,0.045,166.0
2021-04-23T04:25:03,42.805,6.029,0.017,-0.034,0.006,105.0,103.0,100.0,13.3,1505.2,329.0,-0.8,1.8,2470.33,13.28,0.038,153.4
2021-04-23T04:28:03,42.805,6.029,0.012,-0.029,0.022,104.0,103.0,101.0,13.3,1505.2,325.5,-0.7,1.8,2470.326,13.28,0.031,157.5
2021-04-23T04:31:03,42.805,6.029,0.024,-0.018,0.016,104.0,103.0,103.0,13.3,1505.2,326.6,-0.8,1.8,2470.357,13.28,0.03,126.9
2021-04-23T04:34:03,42.805,6.029,0.022,-0.028,0.0,104.0,103.0,100.0,13.3,1505.2,326.4,-0.8,1.8,2470.286,13.28,0.035,141.8
2021-04-23T04:37:03,42.805,6.029,0.004,-0.03,-0.005,103.0,103.0,102.0,13.3,1505.2,323.6,-0.7,1.8,2470.312,13.28,0.03,172.4
2021-04-23T04:40:03,42.805,6.029,0.005,-0.017,0.013,102.0,104.0,102.0,13.4,1505.2,328.0,-0.7,1.8,2470.313,13.28,0.017,163.6
2021-04-23T04:43:03,42.805,6.029,0.019,-0.027,-0.014,105.0,103.0,102.0,13.4,1505.2,326.1,-0.7,1.8,2470.313,13.28,0.033,144.9
2021-04-23T04:46:03,42.805,6.029,0.0,-0.045,-0.008,104.0,103.0,102.0,13.4,1505.2,325.8,-0.8,1.8,2470.287,13.28,0.045,180.0
2021-04-23T04:49:03,42.805,6.029,-0.004,-0.014,0.02,102.0,104.0,102.0,13.4,1505.2,324.4,-0.8,1.8,2470.292,13.28,0.014,195.9
2021-04-23T04:52:03,42.805,6.029,0.011,-0.024,-0.004,103.0,102.0,102.0,13.4,1505.2,324.6,-0.8,1.8,2470.263,13.28,0.026,155.4
2021-04-23T04:55:03,42.805,6.029,-0.002,-0.02,0.011,103.0,104.0,103.0,13.4,1505.2,327.9,-0.7,1.8,2470.301,13.28,0.02,185.7
2021-04-23T04:58:03,42.805,6.029,0.01,-0.016,0.026,103.0,104.0,101.0,13.4,1505.2,323.9,-0.8,1.8,2470.312,13.28,0.018,148.0
2021-04-23T05:04:03,42.805,6.029,0.006,-0.019,-0.003,104.0,103.0,102.0,13.4,1505.2,324.2,-0.7,1.8,2470.294,13.28,0.019,162.5
2021-04-23T05:07:03,42.805,6.029,-0.003,-0.032,-0.026,102.0,104.0,102.0,13.4,1505.2,329.1,-0.8,1.8,2470.326,13.28,0.032,185.4
2021-04-23T05:10:03,42.805,6.029,0.021,-0.038,-0.036,104.0,101.0,102.0,13.4,1505.2,327.4,-0.8,1.8,2470.296,13.28,0.043,151.1
2021-04-23T05:13:03,42.805,6.029,0.0,-0.011,0.025,103.0,107.0,103.0,13.4,1505.2,327.5,-0.7,1.8,2470.307,13.28,0.011,180.0
2021-04-23T05:16:03,42.805,6.029,0.009,-0.015,-0.001,104.0,104.0,102.0,13.4,1505.2,326.6,-0.7,1.8,2470.285,13.28,0.017,149.0
2021-04-23T05:19:03,42.805,6.029,-0.001,-0.034,0.0,103.0,104.0,102.0,13.4,1505.2,325.0,-0.7,1.8,2470.343,13.28,0.034,181.7
2021-04-23T05:22:03,42.805,6.029,-0.01,0.0,0.026,103.0,103.0,102.0,13.4,1505.2,326.9,-0.8,1.8,2470.32,13.28,0.01,270.0
2021-04-23T05:25:03,42.805,6.029,-0.009,-0.018,0.013,103.0,104.0,102.0,13.3,1505.2,327.7,-0.8,1.8,2470.322,13.28,0.02,206.6
2021-04-23T05:28:03,42.805,6.029,0.002,-0.017,0.011,101.0,104.0,102.0,13.4,1505.2,328.3,-0.8,1.8,2470.34,13.28,0.017,173.3
2021-04-23T05:31:03,42.805,6.029,-0.008,-0.002,0.021,103.0,104.0,101.0,13.3,1505.2,325.7,-0.7,1.8,2470.347,13.28,0.008,256.0
2021-04-23T05:34:03,42.805,6.029,0.009,-0.022,-0.005,104.0,103.0,102.0,13.4,1505.2,325.5,-0.7,1.9,2470.321,13.28,0.023,157.8
2021-04-23T05:37:03,42.805,6.029,0.0,-0.029,-0.013,103.0,104.0,102.0,13.4,1505.2,325.8,-0.8,1.9,2470.32,13.28,0.028,180.0
2021-04-23T05:40:03,42.805,6.029,-0.01,-0.025,-0.027,105.0,104.0,101.0,13.3,1505.2,326.9,-0.7,1.8,2470.336,13.28,0.026,201.8
2021-04-23T05:43:03,42.805,6.029,-0.024,-0.014,0.028,104.0,101.0,102.0,13.4,1505.2,327.8,-0.8,1.8,2470.323,13.28,0.027,239.7
2021-04-23T05:46:03,42.805,6.029,-0.003,-0.027,0.002,104.0,103.0,101.0,13.3,1505.2,325.9,-0.7,1.8,2470.338,13.28,0.027,186.3
2021-04-23T05:49:03,42.805,6.029,0.005,-0.006,0.019,104.0,104.0,103.0,13.4,1505.2,324.3,-0.8,1.8,2470.351,13.28,0.007,140.2
2021-04-23T05:52:03,42.805,6.029,-0.015,-0.016,-0.008,103.0,104.0,101.0,13.4,1505.2,326.5,-0.8,1.8,2470.312,13.28,0.021,223.1
2021-04-23T05:55:03,42.805,6.029,-0.015,-0.007,0.002,105.0,101.0,103.0,13.4,1505.2,323.9,-0.8,1.8,2470.335,13.28,0.016,245.0
2021-04-23T05:58:03,42.805,6.029,0.007,-0.024,-0.014,102.0,104.0,102.0,13.3,1505.2,324.5,-0.7,1.8,2470.325,13.28,0.025,163.7
2021-04-23T06:04:03,42.805,6.029,-0.008,-0.03,0.013,103.0,103.0,101.0,13.4,1505.2,328.2,-0.8,1.9,2470.363,13.28,0.031,194.9
2021-04-23T06:07:03,42.805,6.029,-0.022,-0.01,-0.03,105.0,103.0,102.0,13.4,1505.2,329.0,-0.7,1.8,2470.325,13.28,0.024,245.6
2021-04-23T06:10:03,42.805,6.029,-0.001,-0.017,0.009,103.0,104.0,101.0,13.3,1505.2,325.3,-0.8,1.8,2470.37,13.28,0.017,183.4
2021-04-23T06:13:03,42.805,6.029,0.003,-0.017,0.009,102.0,104.0,102.0,13.4,1505.2,324.8,-0.8,1.8,2470.329,13.28,0.017,170.0
2021-04-23T06:16:03,42.805,6.029,0.01,-0.013,0.021,103.0,103.0,102.0,13.4,1505.2,329.1,-0.8,1.8,2470.321,13.28,0.016,142.4
2021-04-23T06:19:03,42.805,6.029,-0.003,-0.021,0.012,103.0,103.0,103.0,13.3,1505.2,327.0,-0.7,1.8,2470.357,13.28,0.021,188.1
2021-04-23T06:22:03,42.805,6.029,0.001,-0.031,0.014,103.0,103.0,102.0,13.3,1505.2,326.4,-0.7,1.8,2470.305,13.28,0.031,178.2
2021-04-23T06:25:03,42.805,6.029,0.021,-0.004,0.016,102.0,105.0,103.0,13.4,1505.2,328.0,-0.7,1.8,2470.329,13.28,0.021,100.8
2021-04-23T06:28:03,42.805,6.029,0.016,-0.027,0.001,102.0,103.0,101.0,13.4,1505.2,326.1,-0.8,1.8,2470.292,13.28,0.031,149.3
2021-04-23T06:31:03,42.805,6.029,-0.009,-0.012,-0.013,103.0,103.0,101.0,13.4,1505.2,324.7,-0.8,1.8,2470.291,13.28,0.015,216.9
2021-04-23T06:34:03,42.805,6.029,0.0,-0.022,0.018,105.0,104.0,102.0,13.3,1505.2,324.0,-0.7,1.9,2470.323,13.28,0.022,180.0
2021-04-23T06:37:03,42.805,6.029,0.003,-0.018,-0.005,104.0,103.0,102.0,13.4,1505.2,325.7,-0.7,1.8,2470.331,13.28,0.018,170.5
2021-04-23T06:40:03,42.805,6.029,0.015,-0.013,0.018,103.0,105.0,104.0,13.3,1505.2,327.3,-0.7,1.8,2470.333,13.28,0.019,130.9
2021-04-23T06:43:03,42.805,6.029,0.007,-0.016,0.006,104.0,105.0,103.0,13.3,1505.2,326.8,-0.8,1.8,2470.322,13.28,0.017,156.4
2021-04-23T06:46:03,42.805,6.029,0.0,-0.016,-0.012,104.0,103.0,102.0,13.4,1505.2,324.1,-0.7,1.9,2470.362,13.28,0.016,180.0
2021-04-23T06:49:03,42.805,6.029,0.011,-0.022,0.024,104.0,103.0,104.0,13.4,1505.2,324.4,-0.8,1.8,2470.324,13.28,0.024,153.4
2021-04-23T06:52:03,42.805,6.029,-0.004,-0.021,0.006,103.0,104.0,103.0,13.4,1505.2,323.8,-0.7,1.8,2470.338,13.28,0.021,190.8
2021-04-23T06:55:03,42.805,6.029,0.007,0.009,0.027,104.0,103.0,102.0,13.4,1505.2,325.4,-0.8,1.8,2470.313,13.28,0.011,37.9
2021-04-23T06:58:03,42.805,6.029,0.029,-0.016,0.016,103.0,104.0,103.0,13.4,1505.2,328.6,-0.8,1.8,2470.364,13.28,0.033,118.9
2021-04-23T07:04:03,42.805,6.029,0.02,-0.024,0.019,104.0,105.0,102.0,13.3,1505.2,326.7,-0.7,1.8,2470.39,13.28,0.031,140.2
2021-04-23T07:07:03,42.805,6.029,0.009,-0.005,0.034,104.0,104.0,102.0,13.3,1505.2,324.1,-0.7,1.8,2470.313,13.28,0.01,119.1
2021-04-23T07:10:03,42.805,6.029,0.011,-0.004,0.006,104.0,105.0,102.0,13.3,1505.2,325.0,-0.8,1.8,2470.307,13.28,0.011,110.0
2021-04-23T07:13:03,42.805,6.029,0.029,-0.013,-0.007,104.0,102.0,101.0,13.3,1505.2,328.7,-0.8,1.8,2470.288,13.28,0.031,114.1
2021-04-23T07:16:03,42.805,6.029,0.017,0.001,0.026,104.0,104.0,102.0,13.4,1505.2,325.0,-0.7,1.9,2470.311,13.28,0.017,86.6
2021-04-23T07:19:03,42.805,6.029,-0.006,-0.003,0.022,103.0,105.0,103.0,13.4,1505.2,324.4,-0.8,1.8,2470.297,13.28,0.006,243.4
2021-04-23T07:22:03,42.805,6.029,0.015,-0.005,-0.008,102.0,105.0,103.0,13.3,1505.2,324.7,-0.7,1.8,2470.28,13.28,0.015,108.4
2021-04-23T07:25:03,42.805,6.029,0.009,-0.007,0.029,104.0,104.0,102.0,13.4,1505.2,325.5,-0.7,1.8,2470.278,13.28,0.011,127.9
2021-04-23T07:28:03,42.805,6.029,-0.002,-0.006,-0.001,106.0,104.0,102.0,13.4,1505.2,328.2,-0.8,1.8,2470.255,13.28,0.006,198.4
2021-04-23T07:31:03,42.805,6.029,0.005,-0.002,0.032,103.0,105.0,102.0,13.3,1505.2,327.6,-0.7,1.8,2470.272,13.28,0.005,111.8
2021-04-23T07:34:03,42.805,6.029,0.016,-0.017,0.026,104.0,103.0,102.0,13.4,1505.2,328.5,-0.8,1.8,2470.27,13.28,0.023,136.7
2021-04-23T07:37:03,42.805,6.029,0.005,-0.003,0.024,104.0,102.0,102.0,13.3,1505.2,325.4,-0.8,1.8,2470.244,13.28,0.005,121.0
2021-04-23T07:40:03,42.805,6.029,0.017,-0.002,0.023,104.0,104.0,103.0,13.4,1505.2,326.9,-0.8,1.8,2470.22,13.28,0.017,96.7
2021-04-23T07:43:03,42.805,6.029,0.031,-0.016,0.049,104.0,104.0,102.0,13.4,1505.2,327.1,-0.8,1.8,2470.262,13.28,0.034,117.3
2021-04-23T07:46:03,42.805,6.029,0.016,-0.02,0.012,103.0,102.0,102.0,13.4,1505.2,324.2,-0.7,1.8,2470.298,13.28,0.025,141.3
2021-04-23T07:49:03,42.805,6.029,0.021,-0.017,0.042,103.0,104.0,102.0,13.3,1505.2,324.2,-0.8,1.8,2470.274,13.28,0.027,129.0
2021-04-23T07:52:03,42.805,6.029,0.01,-0.022,0.016,104.0,104.0,101.0,13.4,1505.2,325.0,-0.8,1.8,2470.256,13.28,0.024,155.6
2021-04-23T07:55:03,42.805,6.029,-0.004,-0.006,0.027,103.0,105.0,102.0,13.4,1505.2,326.2,-0.7,1.8,2470.278,13.28,0.007,213.7
2021-04-23T07:58:03,42.805,6.029,-0.005,-0.02,-0.017,104.0,104.0,102.0,13.4,1505.2,328.8,-0.7,1.8,2470.299,13.28,0.02,194.0
2021-04-23T08:04:03,42.805,6.029,0.013,-0.007,0.004,103.0,104.0,102.0,13.3,1505.2,327.2,-0.7,1.8,2470.306,13.28,0.014,118.3
2021-04-23T08:07:03,42.805,6.029,0.009,-0.02,0.014,104.0,104.0,102.0,13.4,1505.2,326.7,-0.8,1.8,2470.316,13.28,0.021,155.8
2021-04-23T08:10:03,42.805,6.029,0.0,-0.008,-0.01,104.0,105.0,102.0,13.4,1505.2,328.4,-0.8,1.8,2470.289,13.28,0.008,180.0
2021-04-23T08:13:03,42.805,6.029,0.015,-0.01,0.058,104.0,105.0,102.0,13.4,1505.2,327.2,-0.7,1.8,2470.266,13.28,0.018,123.7
2021-04-23T08:16:03,42.805,6.029,0.006,0.013,0.014,104.0,105.0,102.0,13.4,1505.2,327.3,-0.8,1.8,2470.282,13.28,0.014,24.8
2021-04-23T08:19:03,42.805,6.029,0.029,-0.018,-0.001,105.0,104.0,101.0,13.4,1505.2,326.1,-0.8,1.8,2470.28,13.28,0.034,121.8
2021-04-23T08:22:03,42.805,6.029,0.014,-0.021,0.037,105.0,104.0,103.0,13.4,1505.2,323.4,-0.7,1.8,2470.27,13.28,0.025,146.3
2021-04-23T08:25:03,42.805,6.029,0.007,-0.017,-0.009,104.0,105.0,102.0,13.3,1505.2,328.8,-0.8,1.8,2470.302,13.28,0.018,157.6
2021-04-23T08:28:03,42.805,6.029,-0.002,-0.009,0.009,106.0,104.0,103.0,13.3,1505.2,325.7,-0.7,1.8,2470.293,13.28,0.009,192.5
2021-04-23T08:31:03,42.805,6.029,0.008,-0.011,0.024,105.0,103.0,102.0,13.3,1505.2,325.8,-0.7,1.9,2470.262,13.28,0.013,144.0
2021-04-23T08:34:03,42.805,6.029,0.015,-0.018,0.018,104.0,104.0,103.0,13.4,1505.2,327.0,-0.7,1.8,2470.273,13.28,0.023,140.2
2021-04-23T08:37:03,42.805,6.029,0.019,-0.036,-0.014,104.0,105.0,103.0,13.4,1505.2,324.6,-0.8,1.9,2470.297,13.28,0.04,152.2
2021-04-23T08:40:03,42.805,6.029,0.015,-0.043,0.008,104.0,105.0,102.0,13.4,1505.2,326.7,-0.7,1.8,2470.305,13.28,0.045,160.8
2021-04-23T08:43:03,42.805,6.029,0.006,-0.026,-0.008,102.0,103.0,102.0,13.4,1505.2,328.4,-0.8,1.8,2470.307,13.28,0.026,167.0
2021-04-23T08:46:03,42.805,6.029,0.02,-0.008,0.035,105.0,103.0,102.0,13.4,1505.2,325.2,-0.8,1.8,2470.261,13.28,0.021,111.8
2021-04-23T08:49:03,42.805,6.029,0.001,-0.009,0.02,103.0,103.0,102.0,13.4,1505.2,327.8,-0.7,1.8,2470.324,13.28,0.009,173.7
2021-04-23T08:52:03,42.805,6.029,0.01,-0.009,0.0,104.0,104.0,102.0,13.3,1505.2,324.6,-0.8,1.8,2470.301,13.28,0.013,132.0
2021-04-23T08:55:03,42.805,6.029,0.004,-0.023,0.002,103.0,103.0,103.0,13.3,1505.2,326.5,-0.7,1.8,2470.322,13.28,0.023,170.1
2021-04-23T08:58:03,42.805,6.029,-0.007,-0.021,-0.013,103.0,104.0,102.0,13.3,1505.2,326.0,-0.8,1.8,2470.304,13.28,0.022,198.4
2021-04-23T09:04:03,42.805,6.029,0.012,-0.006,0.013,104.0,105.0,103.0,13.4,1505.2,325.0,-0.8,1.8,2470.321,13.28,0.013,116.6
2021-04-23T09:07:03,42.805,6.029,0.011,-0.014,0.005,104.0,106.0,103.0,13.4,1505.2,324.2,-0.8,1.8,2470.335,13.28,0.017,141.8
2021-04-23T09:10:03,42.805,6.029,0.005,-0.016,-0.002,104.0,104.0,103.0,13.4,1505.2,324.4,-0.7,1.8,2470.301,13.28,0.016,162.6
2021-04-23T09:13:03,42.805,6.029,-0.004,-0.004,0.033,104.0,104.0,102.0,13.3,1505.2,327.6,-0.7,1.8,2470.296,13.28,0.005,225.0
2021-04-23T09:16:03,42.805,6.029,-0.003,-0.019,0.002,104.0,103.0,102.0,13.4,1505.2,327.3,-0.8,1.8,2470.309,13.28,0.019,189.0
2021-04-23T09:19:03,42.805,6.029,-0.006,-0.014,-0.002,104.0,104.0,103.0,13.3,1505.2,328.8,-0.7,1.8,2470.267,13.28,0.015,203.2
2021-04-23T09:22:03,42.805,6.029,0.003,-0.015,0.009,104.0,103.0,103.0,13.3,1505.2,327.6,-0.7,1.8,2470.262,13.28,0.015,168.7
2021-04-23T09:25:03,42.805,6.029,0.006,-0.03,0.001,104.0,104.0,102.0,13.3,1505.2,328.7,-0.8,1.8,2470.276,13.28,0.03,168.7
2021-04-23T09:28:03,42.805,6.029,0.028,-0.016,0.04,103.0,104.0,102.0,13.4,1505.2,325.7,-0.7,1.8,2470.262,13.28,0.032,119.7
2021-04-23T09:31:03,42.805,6.029,0.011,-0.023,0.013,105.0,102.0,102.0,13.4,1505.2,328.1,-0.7,1.8,2470.236,13.28,0.025,154.4
2021-04-23T09:34:03,42.805,6.029,0.017,-0.029,0.032,103.0,105.0,103.0,13.4,1505.2,323.8,-0.8,1.8,2470.282,13.28,0.033,149.6
2021-04-23T09:37:03,42.805,6.029,0.002,-0.008,0.009,104.0,103.0,102.0,13.4,1505.2,328.9,-0.7,1.8,2470.272,13.28,0.008,166.0
2021-04-23T09:40:03,42.805,6.029,0.035,-0.028,0.019,104.0,103.0,102.0,13.4,1505.2,325.9,-0.8,1.8,2470.254,13.28,0.044,128.7
2021-04-23T09:43:03,42.805,6.029,-0.005,-0.008,0.029,105.0,102.0,102.0,13.4,1505.2,327.0,-0.8,1.8,2470.242,13.28,0.009,212.0
2021-04-23T09:46:03,42.805,6.029,0.036,-0.028,0.001,103.0,103.0,101.0,13.3,1505.2,325.2,-0.8,1.8,2470.217,13.28,0.045,127.9
2021-04-23T09:49:03,42.805,6.029,0.008,-0.018,0.007,103.0,104.0,102.0,13.4,1505.2,327.3,-0.8,1.8,2470.211,13.28,0.019,156.0
2021-04-23T09:52:03,42.805,6.029,0.006,-0.01,0.015,104.0,103.0,102.0,13.3,1505.2,324.6,-0.8,1.8,2470.192,13.28,0.011,149.0
2021-04-23T09:55:03,42.805,6.029,0.018,-0.029,-0.018,103.0,105.0,101.0,13.4,1505.2,324.2,-0.8,1.8,2470.22,13.28,0.034,148.2